QFA542 YSSY-YMML

Flight info

Callsign QFA542
Flight time 1h 8m
Altitude 32000
Route WOL DCT CB DCT BOYSE
Aircraft B738/M-SDE2E3FGHIRWXY/LB1

Departure

Time 2026-05-04 06:14
Airport Sydney Kingsford Smith International Airport (YSSY)

Arrival

Time 2026-05-04 07:23
Airport Melbourne Airport (YMML)
Time Latitude Longitude Altitude Speed Heading
2026-05-04 04:47 -33.94000 151.16384 20 ft 0 kts 85°
2026-05-04 05:49 -33.94001 151.16372 20 ft 3 kts 85°
2026-05-04 05:49 -33.94003 151.16345 20 ft 3 kts 85°
2026-05-04 05:49 -33.94000 151.16319 20 ft 3 kts 124°
2026-05-04 05:49 -33.93984 151.16302 22 ft 3 kts 153°
2026-05-04 05:51 -33.93965 151.16295 21 ft 0 kts 187°
2026-05-04 05:58 -33.93967 151.16295 20 ft 1 kts 187°
2026-05-04 05:58 -33.93998 151.16291 20 ft 7 kts 187°
2026-05-04 05:59 -33.94034 151.16286 22 ft 8 kts 187°
2026-05-04 05:59 -33.94087 151.16278 20 ft 8 kts 182°
2026-05-04 05:59 -33.94138 151.16290 20 ft 7 kts 162°
2026-05-04 05:59 -33.94172 151.16332 20 ft 7 kts 110°
2026-05-04 06:00 -33.94169 151.16391 21 ft 7 kts 77°
2026-05-04 06:00 -33.94156 151.16446 20 ft 7 kts 73°
2026-05-04 06:00 -33.94142 151.16500 20 ft 7 kts 69°
2026-05-04 06:00 -33.94127 151.16552 20 ft 7 kts 73°
2026-05-04 06:01 -33.94115 151.16605 20 ft 6 kts 76°
2026-05-04 06:01 -33.94105 151.16657 20 ft 6 kts 76°
2026-05-04 06:03 -33.94008 151.17066 20 ft 1 kts 73°
2026-05-04 06:03 -33.94000 151.17096 19 ft 8 kts 74°
2026-05-04 06:05 -33.94157 151.17271 24 ft 13 kts 166°
2026-05-04 06:05 -33.94341 151.17319 27 ft 13 kts 168°
2026-05-04 06:05 -33.94429 151.17341 28 ft 13 kts 168°
2026-05-04 06:06 -33.94514 151.17364 30 ft 12 kts 167°
2026-05-04 06:06 -33.94597 151.17387 28 ft 12 kts 167°
2026-05-04 06:06 -33.94687 151.17410 30 ft 15 kts 169°
2026-05-04 06:06 -33.94801 151.17439 22 ft 18 kts 167°
2026-05-04 06:07 -33.94928 151.17472 19 ft 19 kts 167°
2026-05-04 06:07 -33.95056 151.17505 19 ft 19 kts 168°
2026-05-04 06:07 -33.95180 151.17538 17 ft 18 kts 168°
2026-05-04 06:07 -33.95300 151.17569 17 ft 17 kts 168°
2026-05-04 06:08 -33.95416 151.17598 19 ft 17 kts 168°
2026-05-04 06:08 -33.95527 151.17627 20 ft 16 kts 167°
2026-05-04 06:08 -33.95634 151.17655 22 ft 15 kts 169°
2026-05-04 06:08 -33.95737 151.17682 24 ft 15 kts 168°
2026-05-04 06:09 -33.95835 151.17708 23 ft 14 kts 167°
2026-05-04 06:09 -33.95935 151.17733 21 ft 15 kts 167°
2026-05-04 06:11 -33.96437 151.17903 23 ft 0 kts 108°
2026-05-04 06:11 -33.96437 151.17904 23 ft 1 kts 107°
2026-05-04 06:13 -33.96363 151.18048 23 ft 4 kts 348°
2026-05-04 06:14 -33.91022 151.15122 2696 ft 215 kts 301°
2026-05-04 06:14 -33.90281 151.13520 3307 ft 225 kts 302°
2026-05-04 06:15 -33.89456 151.11819 3799 ft 241 kts 302°
2026-05-04 06:15 -33.88582 151.10080 4517 ft 243 kts 303°
2026-05-04 06:15 -33.87690 151.08354 4893 ft 244 kts 303°
2026-05-04 06:15 -33.86781 151.06630 4929 ft 243 kts 303°
2026-05-04 06:16 -33.85863 151.04905 4943 ft 245 kts 303°
2026-05-04 06:16 -33.84941 151.03176 4949 ft 246 kts 303°
2026-05-04 06:16 -33.84037 151.01419 4946 ft 247 kts 302°
2026-05-04 06:16 -33.83196 150.99632 4943 ft 246 kts 295°
2026-05-04 06:17 -33.82552 150.97722 4938 ft 247 kts 293°
2026-05-04 06:17 -33.81961 150.95786 4937 ft 247 kts 292°
2026-05-04 06:17 -33.81365 150.93843 4938 ft 247 kts 292°
2026-05-04 06:17 -33.80951 150.91837 4918 ft 252 kts 273°
2026-05-04 06:18 -33.81371 150.89809 4937 ft 261 kts 245°
2026-05-04 06:18 -33.82614 150.88177 4937 ft 274 kts 218°
2026-05-04 06:18 -33.84423 150.87340 5026 ft 282 kts 196°
2026-05-04 06:20 -33.98648 150.84853 10825 ft 315 kts 189°
2026-05-04 06:20 -34.00844 150.84653 11712 ft 319 kts 188°
2026-05-04 06:21 -34.09962 150.83830 14936 ft 337 kts 189°
2026-05-04 06:21 -34.12316 150.83594 15661 ft 341 kts 189°
2026-05-04 06:22 -34.14699 150.83351 16370 ft 344 kts 189°
2026-05-04 06:22 -34.17084 150.83104 16911 ft 355 kts 189°
2026-05-04 06:25 -34.42607 150.58464 21895 ft 435 kts 213°
2026-05-04 06:25 -34.45316 150.56798 22252 ft 438 kts 213°
2026-05-04 06:26 -34.48017 150.55147 22623 ft 441 kts 213°
2026-05-04 06:26 -34.50793 150.53446 22992 ft 441 kts 215°
2026-05-04 06:26 -34.53252 150.51380 23318 ft 432 kts 229°
2026-05-04 06:26 -34.55239 150.48707 23659 ft 424 kts 238°
2026-05-04 06:27 -34.62818 150.37466 24661 ft 434 kts 236°
2026-05-04 06:28 -34.64768 150.34654 24898 ft 436 kts 236°
2026-05-04 06:28 -34.66730 150.31834 25110 ft 438 kts 236°
2026-05-04 06:28 -34.68702 150.29005 25339 ft 439 kts 236°
2026-05-04 06:28 -34.70681 150.26164 25472 ft 442 kts 236°
2026-05-04 06:29 -34.72673 150.23302 25682 ft 444 kts 236°
2026-05-04 06:29 -34.74662 150.20443 25914 ft 444 kts 236°
2026-05-04 06:29 -34.76661 150.17565 26097 ft 446 kts 236°
2026-05-04 06:29 -34.78636 150.14719 26383 ft 445 kts 236°
2026-05-04 06:30 -34.80633 150.11840 26686 ft 444 kts 237°
2026-05-04 06:30 -34.82622 150.08971 26987 ft 443 kts 237°
2026-05-04 06:30 -34.84607 150.06103 27252 ft 443 kts 237°
2026-05-04 06:30 -34.86589 150.03235 27499 ft 443 kts 237°
2026-05-04 06:31 -34.88573 150.00363 27763 ft 443 kts 237°
2026-05-04 06:31 -34.90555 149.97491 28063 ft 442 kts 237°
2026-05-04 06:31 -34.92535 149.94619 28333 ft 441 kts 237°
2026-05-04 06:31 -34.94510 149.91753 28565 ft 442 kts 237°
2026-05-04 06:32 -34.96485 149.88884 28837 ft 441 kts 238°
2026-05-04 06:33 -35.10246 149.68831 30481 ft 439 kts 238°
2026-05-04 06:34 -35.12198 149.65981 30769 ft 436 kts 238°
2026-05-04 06:34 -35.14146 149.63133 30999 ft 435 kts 238°
2026-05-04 06:34 -35.16081 149.60299 31190 ft 434 kts 238°
2026-05-04 06:34 -35.18018 149.57458 31410 ft 433 kts 238°
2026-05-04 06:35 -35.19941 149.54637 31651 ft 431 kts 238°
2026-05-04 06:36 -35.33359 149.34881 32052 ft 435 kts 239°
2026-05-04 06:37 -35.37217 149.29182 32050 ft 434 kts 239°
2026-05-04 06:37 -35.41052 149.23512 32049 ft 433 kts 239°
2026-05-04 06:38 -35.44892 149.17822 32043 ft 432 kts 239°
2026-05-04 06:40 -35.60154 148.95110 32004 ft 431 kts 240°
2026-05-04 06:40 -35.63971 148.89406 32010 ft 432 kts 240°
2026-05-04 06:41 -35.67788 148.83692 32012 ft 432 kts 240°
2026-05-04 06:41 -35.71599 148.77981 32010 ft 430 kts 240°
2026-05-04 06:42 -35.75405 148.72263 32005 ft 432 kts 240°
2026-05-04 06:44 -35.90425 148.49226 32008 ft 427 kts 245°
2026-05-04 06:44 -35.93769 148.43248 32018 ft 425 kts 246°
2026-05-04 06:45 -35.97108 148.37225 32026 ft 424 kts 245°
2026-05-04 06:45 -36.00472 148.31200 32026 ft 427 kts 245°
2026-05-04 06:46 -36.03854 148.25168 32024 ft 426 kts 245°
2026-05-04 06:46 -36.07240 148.19129 32027 ft 429 kts 245°
2026-05-04 06:48 -36.20814 147.94832 32027 ft 425 kts 246°
2026-05-04 06:50 -36.34259 147.70573 32030 ft 428 kts 246°
2026-05-04 06:51 -36.37635 147.64447 32026 ft 431 kts 245°
2026-05-04 06:51 -36.41034 147.58275 32016 ft 433 kts 245°
2026-05-04 06:52 -36.44421 147.52129 32008 ft 427 kts 245°
2026-05-04 06:52 -36.47747 147.46072 32010 ft 428 kts 245°
2026-05-04 06:53 -36.51100 147.39947 32007 ft 429 kts 245°
2026-05-04 06:53 -36.54460 147.33804 32004 ft 429 kts 245°
2026-05-04 06:54 -36.57825 147.27641 32002 ft 429 kts 245°
2026-05-04 06:54 -36.61174 147.21499 32003 ft 429 kts 245°
2026-05-04 06:55 -36.64495 147.15393 32012 ft 428 kts 245°
2026-05-04 06:55 -36.67841 147.09231 32013 ft 429 kts 245°
2026-05-04 06:57 -36.81180 146.84551 31556 ft 431 kts 245°
2026-05-04 06:58 -36.82855 146.81441 31120 ft 431 kts 245°
2026-05-04 06:58 -36.84523 146.78341 30692 ft 430 kts 245°
2026-05-04 06:58 -36.86192 146.75238 30264 ft 431 kts 245°
2026-05-04 06:58 -36.87843 146.72160 29782 ft 432 kts 245°
2026-05-04 06:59 -36.89518 146.69038 29270 ft 433 kts 245°
2026-05-04 06:59 -36.91197 146.65903 28769 ft 435 kts 244°
2026-05-04 06:59 -36.92889 146.62738 28287 ft 438 kts 244°
2026-05-04 06:59 -36.94585 146.59566 27799 ft 439 kts 245°
2026-05-04 07:01 -37.05937 146.38283 24597 ft 436 kts 244°
2026-05-04 07:01 -37.07609 146.35139 24115 ft 433 kts 244°
2026-05-04 07:02 -37.09274 146.32003 23622 ft 430 kts 245°
2026-05-04 07:02 -37.10924 146.28889 23082 ft 427 kts 244°
2026-05-04 07:02 -37.12560 146.25799 22581 ft 423 kts 244°
2026-05-04 07:02 -37.14182 146.22732 22102 ft 419 kts 244°
2026-05-04 07:03 -37.15785 146.19700 21633 ft 416 kts 244°
2026-05-04 07:03 -37.17377 146.16685 21175 ft 413 kts 243°
2026-05-04 07:03 -37.18958 146.13687 20709 ft 410 kts 243°
2026-05-04 07:03 -37.20505 146.10750 20286 ft 407 kts 243°
2026-05-04 07:04 -37.22063 146.07789 19827 ft 404 kts 243°
2026-05-04 07:04 -37.23610 146.04850 19393 ft 401 kts 242°
2026-05-04 07:04 -37.25139 146.01942 18951 ft 398 kts 242°
2026-05-04 07:04 -37.26656 145.99054 18514 ft 394 kts 242°
2026-05-04 07:05 -37.28155 145.96200 18052 ft 386 kts 242°
2026-05-04 07:05 -37.29604 145.93443 17556 ft 370 kts 241°
2026-05-04 07:05 -37.30991 145.90806 17173 ft 354 kts 242°
2026-05-04 07:05 -37.32320 145.88272 16764 ft 341 kts 242°
2026-05-04 07:06 -37.34847 145.83432 16028 ft 329 kts 242°
2026-05-04 07:06 -37.36096 145.81032 15666 ft 327 kts 242°
2026-05-04 07:06 -37.37338 145.78647 15307 ft 325 kts 242°
2026-05-04 07:07 -37.38578 145.76265 14929 ft 324 kts 242°
2026-05-04 07:08 -37.47156 145.60116 12326 ft 313 kts 238°
2026-05-04 07:09 -37.48453 145.57921 11937 ft 312 kts 238°
2026-05-04 07:09 -37.49744 145.55733 11566 ft 310 kts 239°
2026-05-04 07:09 -37.51025 145.53549 11268 ft 307 kts 239°
2026-05-04 07:09 -37.52284 145.51391 10876 ft 307 kts 239°
2026-05-04 07:10 -37.53531 145.49245 10655 ft 301 kts 239°
2026-05-04 07:10 -37.54767 145.47115 10424 ft 296 kts 240°
2026-05-04 07:12 -37.62695 145.33416 8890 ft 270 kts 241°
2026-05-04 07:12 -37.63788 145.31522 8648 ft 266 kts 241°
2026-05-04 07:12 -37.64881 145.29625 8330 ft 267 kts 241°
2026-05-04 07:12 -37.65973 145.27731 8030 ft 267 kts 241°
2026-05-04 07:13 -37.67067 145.25830 7742 ft 268 kts 241°
2026-05-04 07:13 -37.68152 145.23948 7471 ft 266 kts 241°
2026-05-04 07:13 -37.69241 145.22056 7183 ft 266 kts 241°
2026-05-04 07:14 -37.73547 145.14569 6198 ft 260 kts 242°
2026-05-04 07:14 -37.74622 145.12693 5826 ft 263 kts 242°
2026-05-04 07:15 -37.75676 145.10864 5774 ft 253 kts 242°
2026-05-04 07:15 -37.76702 145.09079 5524 ft 253 kts 242°
2026-05-04 07:15 -37.77733 145.07273 5255 ft 253 kts 242°
2026-05-04 07:15 -37.78762 145.05475 4975 ft 252 kts 242°
2026-05-04 07:16 -37.79787 145.03683 4709 ft 251 kts 242°
2026-05-04 07:16 -37.80812 145.01892 4458 ft 251 kts 243°
2026-05-04 07:16 -37.81542 144.99979 4231 ft 234 kts 265°
2026-05-04 07:16 -37.81863 144.98052 4185 ft 220 kts 265°
2026-05-04 07:17 -37.82184 144.96239 4106 ft 205 kts 265°
2026-05-04 07:17 -37.82488 144.94519 4007 ft 190 kts 267°
2026-05-04 07:17 -37.82706 144.92945 3913 ft 174 kts 270°
2026-05-04 07:17 -37.82887 144.91494 3808 ft 161 kts 271°
2026-05-04 07:18 -37.83057 144.90095 3527 ft 158 kts 270°
2026-05-04 07:18 -37.83191 144.88765 3288 ft 145 kts 281°
2026-05-04 07:18 -37.82918 144.87623 3138 ft 134 kts 307°
2026-05-04 07:18 -37.82225 144.86827 2975 ft 138 kts 332°
2026-05-04 07:19 -37.81274 144.86583 2811 ft 143 kts 345°
2026-05-04 07:19 -37.80294 144.86371 2611 ft 142 kts 345°
2026-05-04 07:19 -37.79323 144.86166 2424 ft 141 kts 346°
2026-05-04 07:19 -37.78330 144.85965 2236 ft 144 kts 347°
2026-05-04 07:20 -37.77354 144.85771 2053 ft 145 kts 348°
2026-05-04 07:20 -37.76359 144.85579 1863 ft 144 kts 348°
2026-05-04 07:20 -37.75396 144.85394 1680 ft 138 kts 347°
2026-05-04 07:20 -37.74457 144.85212 1486 ft 133 kts 348°
2026-05-04 07:22 -37.68584 144.84091 403 ft 121 kts 348°
2026-05-04 07:22 -37.67809 144.83952 365 ft 99 kts 353°
2026-05-04 07:23 -37.67270 144.83857 386 ft 56 kts 351°
2026-05-04 07:23 -37.67058 144.83833 392 ft 27 kts
2026-05-04 07:23 -37.66937 144.83864 393 ft 8 kts 13°
2026-05-04 07:23 -37.66927 144.83867 394 ft 2 kts 16°
2026-05-04 07:24 -37.66916 144.83871 390 ft 0 kts 19°
2026-05-04 07:24 -37.66867 144.83896 394 ft 20 kts 22°
2026-05-04 07:24 -37.66807 144.83928 397 ft 1 kts 25°
2026-05-04 07:24 -37.66798 144.83933 392 ft 0 kts 24°
2026-05-04 07:25 -37.66781 144.83943 394 ft 5 kts 26°
2026-05-04 07:26 -37.66927 144.84219 395 ft 15 kts 171°
2026-05-04 07:27 -37.67009 144.84233 392 ft 3 kts 172°
2026-05-04 07:27 -37.67014 144.84234 392 ft 0 kts 171°
2026-05-04 07:28 -37.67015 144.84234 391 ft 1 kts 170°
2026-05-04 07:28 -37.67044 144.84259 391 ft 8 kts 131°
2026-05-04 07:29 -37.67054 144.84331 391 ft 9 kts 84°
2026-05-04 07:29 -37.67045 144.84404 393 ft 8 kts 76°
2026-05-04 07:29 -37.67020 144.84468 390 ft 8 kts 54°
2026-05-04 07:29 -37.66985 144.84481 392 ft 4 kts 337°
2026-05-04 07:30 -37.66969 144.84447 396 ft 5 kts 296°
2026-05-04 07:30 -37.66945 144.84420 394 ft 5 kts 332°
2026-05-04 07:30 -37.66939 144.84416 395 ft 0 kts 332°